Theta_e
321 320 319 319 319 318 318 317 317 316 316 315 315 315 314 314 313 313 313 312 312 312 312 312 312 313 313 313 313 313 313 314 314 314 315 315 315 315 315 315 315 316 316 316 317 319 321 322 323 324 325 325 326 327 328 329 330 330 330 330 330 330 330 330 331 331 330 330 330 330 331 332 333 333 332 331 330 329 328 327 326 326 325 324 323
319 319 319 318 318 317 317 316 316 315 314 314 314 313 313 312 312 312 312 312 311 311 312 312 312 312 312 312 312 312 312 313 313 313 313 313 314 314 314 313 313 314 314 315 315 316 317 319 321 322 323 324 324 325 327 328 330 330 329 329 330 330 330 329 330 330 331 331 331 330 330 332 332 332 332 331 330 329 328 327 326 326 325 324 324
318 318 318 317 317 316 316 315 314 314 313 312 312 312 311 311 311 311 311 311 311 311 311 311 311 311 311 311 311 311 311 312 312 312 312 312 312 312 312 312 312 312 313 314 314 315 315 317 319 321 323 323 324 325 326 327 328 330 330 329 328 329 330 330 329 329 330 330 331 329 330 331 332 332 331 331 330 329 329 328 327 327 326 325 324
318 317 317 316 316 315 314 314 313 312 312 311 311 311 310 310 310 310 310 310 310 310 310 310 310 310 310 310 310 310 310 311 311 311 311 311 312 312 312 312 311 311 311 312 313 313 314 315 317 319 320 321 322 324 326 327 327 328 329 329 328 328 329 330 330 329 328 329 330 329 329 331 331 332 332 331 330 330 330 329 328 327 326 325 325
317 316 316 315 315 314 313 312 312 312 311 310 310 310 310 310 309 309 309 310 309 310 309 309 309 309 309 309 309 309 309 309 309 309 310 311 311 312 312 312 311 311 311 311 312 312 313 314 315 316 317 319 320 322 324 325 325 327 328 328 328 328 328 328 329 329 328 329 330 329 329 330 331 332 332 330 330 330 330 329 329 328 327 326 325
315 315 314 314 313 312 312 312 311 311 310 310 309 309 309 309 309 309 309 309 309 309 309 309 308 309 309 309 309 308 308 307 307 308 309 310 311 311 312 312 312 311 311 311 312 312 312 313 314 315 317 318 318 319 320 321 323 325 326 327 328 329 328 327 327 328 329 330 330 329 329 330 330 331 331 330 329 329 330 330 329 328 326 325 325
314 314 313 312 312 312 311 311 310 310 309 309 308 308 308 308 308 308 308 308 309 309 309 308 308 309 309 309 308 307 306 305 305 306 307 308 310 311 312 312 312 311 311 310 310 311 311 311 312 313 314 314 314 314 315 316 318 320 323 325 325 326 327 327 327 329 329 329 329 329 329 329 329 330 330 329 328 328 329 329 329 329 327 326 326
313 313 312 312 311 311 310 310 309 309 308 308 308 308 308 308 308 308 308 308 308 308 308 308 309 309 309 308 307 305 304 304 303 305 306 307 309 311 311 311 311 311 310 309 309 310 310 310 311 311 311 310 310 310 311 312 314 316 319 321 322 323 324 325 326 327 328 328 328 329 329 329 329 330 330 329 329 328 329 329 329 329 328 327 326
312 312 312 311 310 310 309 309 309 308 308 308 308 308 308 307 308 308 308 307 308 308 308 308 308 309 309 308 306 304 303 302 302 303 305 306 309 311 311 310 310 309 309 309 309 310 310 310 310 310 309 308 308 308 310 312 314 314 315 317 318 319 321 322 323 324 326 327 328 328 329 328 329 330 330 329 328 328 328 328 329 329 328 328 327
311 311 311 310 310 309 309 308 308 308 308 307 308 308 308 308 308 308 308 307 308 308 308 308 308 308 308 307 306 304 301 301 302 303 304 305 308 310 309 309 308 308 308 309 309 309 309 309 309 308 307 307 308 309 312 313 314 313 313 313 314 314 316 318 320 321 322 324 325 326 328 328 329 330 329 328 327 327 328 328 328 328 328 328 328
310 310 310 309 309 309 308 308 307 307 307 307 307 308 308 307 308 308 307 307 307 307 307 307 307 307 307 306 305 303 301 301 303 304 304 305 307 308 308 308 307 307 307 307 308 308 308 308 308 308 307 306 307 308 310 312 313 313 312 312 312 311 311 312 313 315 316 318 319 321 324 326 327 329 329 328 327 327 327 327 328 328 328 327 327
309 309 309 309 308 308 308 307 307 307 307 307 307 307 307 307 307 307 307 307 307 307 306 306 306 307 307 306 305 303 301 302 304 304 303 305 306 307 307 307 307 306 306 306 306 306 306 307 307 307 307 305 305 305 307 310 312 313 312 312 312 311 309 308 308 309 311 312 314 316 318 320 322 324 326 327 326 327 326 327 328 328 327 327 326
308 308 308 308 308 308 308 307 307 307 307 307 307 307 307 307 307 307 306 306 306 306 306 305 306 306 306 305 304 302 301 303 304 303 303 304 306 307 307 306 306 306 306 305 305 304 304 305 306 306 306 304 304 305 306 309 312 313 312 312 312 311 309 307 306 306 307 309 311 312 314 314 315 316 318 320 322 324 326 327 327 327 327 326 326
308 308 308 308 308 307 307 307 307 307 307 307 307 307 307 306 306 306 306 306 306 306 305 305 305 305 305 305 304 302 301 302 303 303 304 304 305 306 306 306 305 305 304 304 303 303 303 303 304 305 304 303 303 304 306 308 310 311 312 312 311 310 309 308 306 306 306 306 307 308 308 308 308 310 312 314 315 319 323 326 326 326 326 326 326
307 307 307 307 307 307 307 306 307 307 306 306 306 306 306 306 306 306 306 305 305 305 305 304 304 304 304 304 304 302 301 302 303 303 304 304 305 306 306 305 305 304 303 303 303 302 301 302 302 303 303 302 302 303 304 306 308 309 309 310 309 309 308 307 306 305 305 305 305 305 305 304 305 306 308 310 312 315 319 323 324 325 326 325 326
307 307 307 307 306 306 306 306 306 306 306 306 306 306 305 305 305 305 305 304 304 304 303 303 303 303 303 303 303 302 300 301 302 302 303 304 305 306 305 305 304 304 303 302 302 301 300 300 300 300 300 299 301 303 304 305 307 307 308 308 308 308 307 306 305 305 304 304 304 304 304 304 304 305 306 308 310 313 316 320 322 324 324 325 325
306 306 306 306 306 306 306 306 306 305 305 305 305 305 305 305 304 304 304 304 303 303 303 303 302 302 302 302 302 302 300 300 301 302 303 304 305 305 305 305 304 303 303 302 302 301 300 298 298 298 298 298 299 301 303 305 306 306 307 307 307 307 307 306 305 305 304 304 304 304 304 304 304 305 306 307 309 311 314 317 321 323 323 324 324
305 306 305 305 305 305 305 305 305 305 304 304 304 304 304 304 304 304 304 303 303 302 302 303 302 302 301 301 301 301 299 299 300 301 301 303 304 305 304 304 303 303 302 302 301 301 300 298 297 297 297 297 298 299 301 303 304 304 305 306 305 306 306 305 305 305 305 305 304 304 304 304 305 305 305 306 307 310 311 313 317 321 322 324 322
304 304 304 304 304 304 304 304 304 304 304 304 304 304 304 304 304 304 303 303 302 302 302 302 302 302 301 300 300 301 300 298 298 299 300 301 302 303 303 303 303 302 302 301 301 300 300 299 298 297 297 297 297 298 299 300 302 302 303 304 304 304 305 305 305 305 305 305 304 304 304 304 304 305 305 305 306 307 308 310 313 317 320 323 321
302 303 303 303 303 303 303 304 303 303 304 304 304 303 303 303 303 303 303 302 302 302 302 302 302 301 301 300 299 299 299 298 297 298 299 299 301 302 302 302 302 301 301 300 300 300 300 299 298 297 297 297 297 298 298 299 300 301 301 302 302 302 303 305 304 304 304 304 304 303 303 303 303 303 304 304 304 305 306 308 310 313 317 320 320
302 302 303 303 303 303 303 303 303 303 303 303 303 303 303 303 302 302 302 302 302 302 302 301 301 301 301 301 299 298 298 297 297 297 298 299 299 300 301 301 301 301 300 300 300 299 299 299 298 297 297 297 297 298 298 298 299 300 300 300 301 301 303 304 304 303 304 304 303 303 302 302 302 302 302 302 303 303 304 305 308 310 314 317 318
302 302 303 303 303 303 303 303 303 303 303 302 302 302 302 302 302 302 302 302 302 302 302 301 301 301 300 301 300 298 297 296 296 296 297 297 298 299 299 299 300 300 300 299 299 299 299 298 297 297 297 297 297 297 298 298 299 299 299 299 300 301 302 302 302 302 302 302 302 302 301 301 301 301 301 301 301 302 303 304 306 308 311 315 317
302 303 303 303 303 303 302 302 302 302 302 302 302 302 302 302 302 301 302 302 302 302 301 301 301 301 300 300 300 299 298 297 296 296 296 296 296 297 297 298 298 299 299 299 298 298 298 298 297 297 297 297 298 297 298 298 299 299 299 299 300 300 301 301 301 301 301 300 301 301 301 301 301 300 300 300 300 301 302 302 304 305 308 311 314
302 302 302 302 302 302 302 302 302 302 302 301 301 302 302 302 302 301 301 301 301 301 301 301 301 301 300 300 299 299 299 298 297 296 296 295 295 295 296 296 297 297 298 297 297 297 297 296 296 296 297 297 298 298 298 298 299 299 299 299 299 300 300 300 301 300 300 300 300 300 300 300 300 300 299 299 299 300 301 302 302 303 305 307 309
302 302 302 302 302 302 302 302 302 302 301 301 301 301 301 301 301 301 301 301 301 301 300 301 301 301 301 300 300 299 298 298 298 297 297 296 296 295 295 296 296 297 297 296 296 296 295 296 296 296 297 297 298 298 298 298 299 299 299 299 299 299 299 300 300 300 300 300 300 300 300 299 299 299 299 298 299 299 299 301 301 301 302 303 304
302 301 301 301 301 301 301 300 301 301 301 301 301 301 301 301 301 301 301 301 300 300 300 300 300 301 301 300 300 299 298 297 297 297 298 298 297 297 297 296 296 297 297 297 296 296 296 296 296 296 297 297 298 298 298 298 298 299 299 299 299 299 299 299 299 300 300 300 300 300 299 299 298 298 298 298 298 298 298 299 300 300 301 301 301
301 301 301 301 300 300 300 300 300 300 300 300 300 300 300 300 300 301 301 301 300 300 299 300 300 301 301 300 299 298 297 297 296 296 297 298 298 297 297 297 297 297 298 298 298 297 297 297 296 296 297 297 297 298 298 297 298 298 299 299 299 299 298 299 299 299 299 299 299 300 299 299 298 298 297 297 297 297 297 298 298 299 300 300 300
301 301 301 300 300 300 300 300 300 300 300 300 300 300 299 299 298 299 299 300 300 300 299 299 300 300 300 300 299 298 297 296 295 295 295 295 296 296 296 296 296 296 297 297 298 298 297 297 297 297 297 297 297 297 297 297 297 297 298 298 299 298 298 298 298 299 299 298 299 299 299 298 298 298 297 297 297 296 297 297 297 298 298 299 299
300 300 300 300 300 299 300 300 299 299 299 298 298 298 298 298 297 297 296 296 298 298 299 299 299 299 298 298 298 298 296 295 294 293 293 293 294 294 294 295 295 295 295 296 297 297 297 297 297 297 297 297 297 297 297 297 297 297 297 297 298 298 298 298 298 298 298 298 298 298 298 298 298 298 297 297 297 296 296 296 296 296 296 297 297
300 300 299 299 299 300 300 300 299 298 297 297 296 295 295 296 296 295 295 295 295 296 296 297 298 299 297 295 295 296 295 294 293 293 293 293 293 293 293 293 294 295 295 296 297 297 297 297 296 296 296 296 296 296 296 296 296 296 296 297 297 297 298 298 298 298 298 298 298 298 298 298 298 298 298 297 297 297 296 296 295 295 295 295 295
299 299 300 299 299 300 300 299 299 298 297 296 296 295 294 294 294 294 294 294 294 294 294 294 295 297 297 296 295 294 294 293 293 293 293 293 293 293 293 293 294 295 295 296 296 296 296 297 296 296 296 296 296 296 296 296 296 296 296 296 296 297 297 297 298 298 297 297 297 297 297 298 298 298 298 297 298 297 297 296 295 295 294 294 294
300 300 299 299 299 299 299 299 298 298 298 297 297 296 296 295 294 293 293 293 292 292 292 292 292 293 294 295 295 294 293 293 293 292 293 293 293 293 293 293 294 295 295 296 296 296 296 296 296 296 296 296 296 296 296 296 296 296 296 296 296 296 296 296 297 297 297 297 297 297 297 297 297 298 298 298 298 298 297 297 296 296 295 294 294
300 300 299 299 299 299 298 298 298 298 298 298 298 298 297 297 296 295 294 293 292 292 292 292 291 291 291 292 293 293 293 292 292 292 292 292 293 293 293 294 294 295 296 296 296 296 296 296 296 296 296 296 296 296 296 296 296 295 295 295 296 296 296 296 296 296 296 297 297 297 297 296 296 297 297 298 298 298 298 298 297 297 296 295 295
300 299 299 299 299 299 298 298 298 298 298 299 298 298 298 298 298 297 296 296 295 294 293 293 293 292 292 292 292 292 291 291 291 290 290 291 292 293 294 294 295 295 296 296 296 296 296 296 295 295 296 296 296 296 296 296 296 295 295 295 295 295 295 295 295 295 295 296 296 296 296 296 296 296 297 297 298 298 298 298 298 297 297 297 296
299 299 298 299 299 299 298 298 298 298 298 298 298 298 298 298 298 298 298 298 297 297 296 295 294 294 294 293 293 293 292 292 291 290 290 291 293 294 294 295 295 295 296 296 296 295 295 295 295 295 295 295 295 296 296 296 296 295 295 295 295 295 295 295 295 295 295 295 295 295 295 295 295 295 296 296 297 297 297 298 297 297 297 297 297
298 298 298 299 299 299 298 298 298 298 298 298 298 298 298 298 298 298 298 298 298 298 297 297 296 295 295 295 294 294 294 294 293 292 292 293 294 295 295 295 295 295 295 295 295 295 295 295 295 295 295 295 295 295 295 295 295 295 295 295 295 294 294 294 295 295 294 295 295 295 295 295 295 295 295 296 296 297 297 297 297 297 297 297 297
298 298 299 299 299 298 299 299 298 298 298 298 298 298 298 298 298 298 298 298 298 298 298 298 298 297 296 296 295 295 295 295 295 294 294 294 295 295 295 295 295 295 295 295 295 295 295 294 294 294 294 294 294 294 294 294 295 295 295 295 294 294 294 294 294 294 294 294 294 294 294 294 294 294 294 295 295 296 296 297 297 297 297 297 297
298 298 299 299 298 299 299 298 297 297 297 298 298 298 298 298 298 298 298 297 298 298 298 298 298 298 298 297 297 297 297 296 296 296 296 295 295 296 296 295 295 295 295 295 295 295 295 294 294 294 294 294 294 293 293 293 293 293 294 294 294 294 293 294 294 294 294 294 294 294 294 294 294 294 294 294 294 294 295 296 296 297 297 297 297
298 298 298 298 298 298 298 297 297 297 298 298 298 298 297 298 298 298 298 298 298 298 298 298 298 298 298 298 298 298 298 298 297 297 296 296 296 296 296 296 296 295 295 295 295 295 295 294 294 294 294 293 293 293 293 293 292 292 292 293 293 293 293 293 293 293 294 294 294 294 294 294 294 294 294 294 294 294 294 295 295 296 296 296 296
298 297 297 297 298 298 297 297 297 298 298 298 298 298 298 298 298 298 299 298 298 298 298 299 299 298 298 297 297 297 298 298 298 297 297 296 296 296 296 296 296 296 295 295 295 295 295 295 294 294 294 293 293 293 293 292 292 292 292 292 292 292 293 293 293 293 293 293 293 293 293 293 293 293 293 293 293 294 294 294 294 294 295 295 295
297 297 297 297 298 298 298 298 298 298 298 298 298 298 298 298 298 298 299 299 299 299 299 299 299 299 297 297 296 296 297 298 298 298 297 297 297 296 296 296 296 296 296 295 295 295 295 294 294 294 294 293 293 293 293 292 292 292 291 291 291 291 292 292 292 292 292 292 292 293 293 293 293 293 293 293 293 293 293 294 294 294 294 294 294
298 297 297 297 298 298 298 298 298 298 298 298 299 299 299 299 298 299 299 298 298 299 299 299 299 299 298 297 296 296 296 297 297 297 297 297 297 297 296 296 296 296 296 296 295 295 294 294 294 294 294 294 294 293 293 293 292 292 292 291 291 291 291 291 291 292 292 292 292 292 292 292 292 293 293 293 293 293 293 293 293 293 293 293 294
298 298 298 298 298 298 298 298 298 298 298 298 299 299 298 298 299 299 298 298 298 298 298 298 299 299 298 297 296 296 296 297 298 297 297 297 297 297 297 297 296 296 296 296 296 295 295 294 294 294 294 294 294 294 293 293 293 293 292 292 291 291 290 290 290 291 292 292 292 292 292 292 292 292 292 292 292 292 292 292 293 293 293 293 293
299 298 298 298 298 298 299 299 299 299 299 298 298 298 298 298 298 299 299 299 299 298 298 298 298 298 298 298 297 297 297 297 297 297 296 296 296 297 297 297 296 296 296 296 296 295 295 295 294 294 294 294 294 294 294 294 293 293 293 292 292 291 290 290 289 289 290 291 292 291 291 291 292 292 292 292 292 292 292 291 291 292 292 292 292
299 299 299 299 299 299 299 299 299 299 298 298 298 298 298 298 298 299 299 299 299 298 298 298 298 298 298 298 298 297 297 297 296 296 296 296 296 296 297 296 296 296 296 296 296 295 295 295 295 294 294 294 294 294 294 294 294 294 294 293 292 292 291 290 289 289 289 290 291 291 291 291 291 291 291 291 291 291 291 291 291 291 291 291 291
300 300 299 299 299 299 299 299 299 299 299 298 298 298 299 298 299 299 299 298 298 298 298 298 298 298 298 298 298 297 297 297 297 296 296 296 296 296 296 296 296 296 296 296 296 296 295 295 295 295 294 294 294 295 295 295 294 294 294 294 293 293 292 291 290 289 289 289 290 291 291 291 291 290 290 290 291 291 290 290 290 290 291 291 291
300 300 300 300 299 299 299 299 299 298 298 299 299 299 299 299 299 299 299 298 298 298 298 298 298 298 298 298 298 297 297 297 297 296 296 296 296 296 296 296 296 296 296 296 296 296 295 295 295 295 295 294 294 295 295 295 295 295 294 294 294 294 293 292 291 291 290 289 289 290 290 291 291 291 290 290 290 290 290 290 290 290 290 290 290
300 300 300 300 300 299 299 299 299 298 298 299 299 298 298 299 299 299 299 299 298 298 298 298 298 298 298 298 297 297 297 297 297 296 296 296 296 296 296 296 295 295 295 296 296 296 296 295 295 295 295 295 295 294 294 295 295 295 295 295 294 294 294 293 293 292 291 290 290 290 290 291 291 291 290 290 290 290 290 290 290 290 289 289 289
299 299 299 299 299 299 299 299 299 299 299 299 299 299 298 298 299 299 299 299 299 299 299 299 298 298 298 298 298 297 297 297 297 297 296 297 297 296 296 296 295 295 295 295 295 295 296 296 295 295 295 295 295 295 295 295 295 295 295 295 294 294 294 294 293 293 293 292 291 291 291 291 291 290 290 290 290 290 290 289 289 289 289 289 289
299 299 300 300 299 300 300 300 300 300 300 299 299 299 299 299 299 299 299 299 299 299 299 299 299 298 298 298 298 298 297 297 297 297 297 297 297 297 296 296 296 295 295 294 294 295 295 295 295 295 295 295 295 295 295 294 294 294 294 294 294 294 293 293 293 293 294 293 292 291 291 291 291 291 291 291 290 290 290 290 289 289 289 289 289
299 299 300 300 300 300 300 300 300 300 300 300 300 300 300 299 299 299 299 299 299 299 299 299 299 299 298 298 298 298 298 297 297 297 297 297 297 297 297 296 296 296 295 295 295 295 295 295 295 295 295 295 295 295 294 294 294 294 294 294 294 294 294 294 293 293 293 293 293 292 292 291 291 291 291 291 291 291 290 290 290 289 290 290 290
Wind_Speed
10 9 9 8 8 8 8 7 7 7 8 8 9 9 9 9 8 8 8 8 8 8 8 9 10 10 10 11 11 11 11 11 11 11 11 11 11 11 11 12 14 14 14 15 15 15 15 16 17 17 18 18 20 21 21 19 17 18 19 17 16 16 17 17 14 13 18 19 17 18 18 17 17 17 19 21 23 26 30 33 34 34 38 41 42
10 9 8 8 8 8 8 8 8 8 9 9 10 9 9 9 9 8 8 8 9 9 9 10 10 10 10 11 11 11 11 11 11 11 11 12 12 12 11 12 13 13 13 14 14 14 14 15 16 16 17 18 19 20 21 20 17 18 20 19 18 17 17 19 17 14 16 19 17 17 17 16 18 17 17 19 20 24 27 29 30 30 33 39 42
9 8 8 8 8 8 8 9 9 9 9 10 11 10 10 9 9 9 9 9 9 9 10 10 10 10 10 11 11 11 12 12 11 12 11 12 12 12 12 12 12 12 13 13 13 13 13 14 15 15 16 17 19 19 20 20 18 17 18 20 21 19 17 18 18 17 18 19 18 17 16 16 17 17 17 19 20 22 26 28 30 30 32 36 41
8 7 7 8 8 9 10 10 10 9 10 11 11 11 10 9 10 10 10 9 9 9 10 10 10 10 10 11 11 11 12 12 12 12 12 12 12 12 12 12 12 12 13 13 13 13 13 14 15 15 16 17 19 20 20 20 20 18 17 19 21 20 18 17 18 19 20 19 17 17 17 17 17 16 16 19 21 22 26 28 29 30 31 34 38
7 7 7 8 9 10 10 11 11 10 10 10 11 11 10 10 10 10 10 10 10 10 10 10 10 11 11 11 11 11 12 13 13 13 13 12 12 12 12 12 12 12 12 12 13 13 13 14 15 16 16 17 18 19 20 21 21 20 18 18 19 18 19 21 20 18 19 19 19 19 18 18 18 17 16 20 23 23 25 28 28 29 31 34 37
7 8 8 9 10 10 10 11 11 10 9 10 10 10 11 11 11 10 10 10 10 11 11 11 11 12 12 12 11 11 12 13 14 14 14 13 12 11 12 12 12 12 12 12 13 13 13 14 15 15 16 17 18 18 19 19 19 19 20 19 19 18 19 22 20 18 19 20 20 19 18 18 19 18 18 21 23 22 23 25 27 30 33 34 36
8 10 10 10 10 10 10 11 10 9 9 9 10 10 11 12 11 10 10 11 11 11 11 12 12 12 13 12 12 12 12 13 14 15 15 13 12 12 12 12 12 11 11 12 12 12 13 13 14 14 15 17 18 19 19 19 18 18 19 20 19 18 19 20 19 18 18 19 19 17 17 18 19 20 21 22 23 24 24 23 23 28 32 33 34
10 11 11 10 10 10 10 10 10 9 9 9 10 11 12 11 11 11 11 11 12 12 12 12 12 13 13 13 12 12 13 14 17 18 16 12 11 12 11 12 12 11 11 12 13 13 13 13 14 15 17 18 20 20 18 17 18 17 17 17 16 17 17 18 19 18 17 17 17 16 17 18 17 17 19 19 20 23 26 25 23 25 28 31 34
12 12 11 10 10 10 9 10 9 9 9 10 10 11 12 12 12 12 12 12 12 12 12 12 13 13 13 13 13 13 13 15 17 18 16 12 10 11 11 12 13 13 14 14 14 15 15 14 15 17 20 21 22 20 15 13 17 18 17 16 15 14 15 15 16 18 17 17 17 15 16 17 16 14 15 17 20 21 22 24 24 24 25 27 31
13 12 11 10 9 9 9 9 9 9 9 10 11 11 12 12 12 13 12 13 13 12 12 12 13 14 14 15 15 14 15 17 15 14 14 11 10 10 10 12 14 15 16 16 16 16 17 16 16 19 22 24 25 22 15 13 16 18 17 16 15 13 13 13 13 14 15 15 17 16 15 17 17 14 14 19 22 21 21 23 23 23 23 22 24
13 12 12 10 9 10 9 9 9 9 9 10 11 11 12 12 12 12 12 13 13 12 13 13 13 14 14 16 17 16 17 19 16 13 14 13 11 11 12 13 14 15 16 17 18 18 18 18 19 21 23 25 27 24 17 15 17 18 16 16 16 16 14 12 12 13 13 13 15 16 15 17 18 16 15 19 21 22 23 23 22 21 20 17 15
13 12 12 11 10 10 10 9 9 9 10 10 11 11 12 12 12 12 12 13 13 13 13 13 14 14 14 16 18 18 19 20 17 15 16 16 16 14 13 14 15 16 17 18 19 20 20 20 20 21 22 25 28 25 20 19 18 17 16 14 14 16 16 14 13 12 13 13 14 14 15 16 18 18 16 16 19 22 23 23 22 22 22 19 16
12 12 11 10 10 10 10 10 10 10 10 10 11 11 12 12 12 12 12 13 13 13 13 13 14 14 14 16 18 20 23 22 18 17 18 19 18 17 15 15 16 17 18 20 21 22 22 21 20 21 23 26 29 27 23 22 19 16 15 14 12 15 17 16 14 13 12 13 14 14 15 16 18 19 20 21 20 19 20 22 23 23 23 23 22
12 12 11 10 10 10 10 10 10 10 10 10 11 12 12 12 12 12 12 12 12 12 13 13 14 14 14 15 17 21 26 24 18 17 19 19 19 17 16 16 17 18 19 20 22 23 23 22 21 22 23 26 28 27 24 22 19 16 15 14 13 14 15 15 16 15 13 12 13 15 16 16 17 20 23 24 22 19 19 20 22 26 28 29 28
12 11 11 10 10 10 10 10 11 11 11 11 12 12 13 13 13 12 12 12 12 12 13 14 14 14 14 14 16 20 26 25 21 19 19 19 18 16 16 16 16 17 18 19 21 23 23 22 21 21 23 26 27 24 22 20 19 17 16 15 14 14 15 15 16 17 16 14 14 15 15 16 17 19 20 21 21 22 22 21 21 26 29 28 27
12 12 11 11 10 10 10 11 11 12 12 12 13 13 13 13 13 12 12 11 12 13 14 14 15 15 14 14 15 18 24 26 23 20 20 19 17 15 15 16 16 17 18 18 19 21 23 24 23 21 23 27 27 23 20 18 17 18 17 16 15 15 17 18 18 19 19 18 17 17 18 20 19 18 17 18 18 21 22 21 21 23 22 19 20
12 12 12 11 11 11 11 12 12 13 13 13 13 13 13 13 13 12 11 11 12 13 14 14 15 15 15 15 15 17 21 25 24 21 19 18 16 15 14 15 16 16 17 18 17 19 22 25 26 25 25 27 27 23 19 17 16 18 17 16 16 15 17 20 20 20 20 20 19 19 20 21 21 19 17 17 15 15 15 16 18 21 19 13 10
12 12 12 12 12 12 12 13 13 13 13 13 13 13 13 13 12 11 11 12 12 13 13 14 15 16 16 17 16 16 19 23 23 21 19 17 16 15 14 14 16 16 16 17 17 17 21 24 27 28 27 28 27 24 20 18 17 19 18 17 16 16 17 21 22 21 22 21 20 19 20 21 21 19 19 19 16 13 10 10 13 16 17 14 8
12 12 13 13 13 13 13 13 13 13 13 13 13 13 13 12 11 10 11 12 13 13 14 14 15 15 16 17 17 16 18 23 25 23 21 19 17 15 14 14 16 16 16 17 18 18 19 22 26 28 29 30 30 27 24 21 19 19 18 17 17 17 18 20 21 22 23 23 22 22 21 22 22 20 21 22 19 17 14 11 12 12 13 15 12
13 12 12 13 13 14 14 13 14 14 13 13 13 12 12 11 11 11 12 12 13 13 14 14 15 15 15 17 19 18 17 20 24 25 24 21 19 17 16 15 15 16 16 17 18 19 19 20 24 28 29 31 32 30 29 27 23 21 20 18 17 18 18 18 20 22 22 22 23 23 22 23 23 22 22 22 21 20 18 15 13 11 11 13 12
14 12 12 13 13 15 14 14 15 14 13 12 12 11 11 12 12 12 13 13 13 13 13 13 14 14 14 15 18 20 20 19 21 23 24 23 21 19 17 16 16 16 17 18 18 19 20 19 22 27 29 31 33 32 32 31 27 24 23 21 19 18 18 17 18 20 21 21 22 23 23 24 24 23 24 23 23 23 22 20 16 11 9 10 8
14 12 13 13 14 15 15 14 15 13 12 12 13 12 13 12 13 13 14 14 14 13 13 13 13 14 14 14 14 17 20 20 20 21 22 23 22 21 18 17 17 16 17 17 18 19 19 18 21 26 29 31 33 33 32 32 30 28 26 25 23 21 19 17 18 20 20 21 22 23 25 25 25 25 25 24 25 25 24 22 19 13 7 4 5
14 14 14 14 14 15 15 15 14 13 12 13 13 13 13 13 13 13 12 13 13 13 13 13 13 13 13 13 13 13 15 18 20 21 20 20 21 20 19 18 17 16 16 16 16 17 16 17 21 26 28 29 31 32 33 32 31 31 29 27 26 24 21 20 20 20 21 22 23 24 25 26 26 26 26 25 25 25 23 21 20 17 13 6 3
15 15 15 15 15 14 14 14 14 13 13 13 13 13 13 12 12 12 11 12 12 12 12 11 11 12 11 12 13 13 13 14 16 18 18 18 19 19 19 19 18 15 15 15 15 16 16 18 22 25 26 26 26 27 30 31 30 31 31 30 28 25 24 23 23 22 22 24 24 24 24 25 25 26 26 25 25 24 22 21 21 22 21 19 16
16 16 16 15 15 14 14 13 13 12 12 12 12 12 12 12 12 11 11 12 11 11 11 10 10 11 11 11 12 13 13 13 13 14 13 14 16 17 17 18 18 16 15 15 16 18 19 20 21 22 24 24 22 23 26 28 28 28 30 30 29 27 25 25 25 25 25 25 26 25 25 25 25 24 24 25 25 25 24 22 24 26 27 28 28
16 16 16 16 15 14 14 14 13 13 12 12 11 11 11 10 11 11 11 12 11 10 10 10 10 10 10 11 11 12 13 14 14 13 12 11 12 13 13 14 15 13 13 13 15 17 18 19 19 20 21 21 20 21 23 26 26 26 28 29 29 28 27 26 26 27 26 25 26 27 26 25 24 24 24 25 26 28 27 24 25 27 28 31 34
16 16 15 15 14 13 13 13 13 12 12 11 11 11 11 11 11 10 10 10 10 10 10 10 10 10 10 10 11 11 13 14 15 16 14 12 12 12 12 12 13 12 10 11 12 13 14 15 17 18 19 19 20 20 21 23 25 26 26 27 28 28 28 27 26 28 28 26 26 26 25 25 26 26 26 27 27 29 29 26 25 26 27 32 35
16 15 15 14 14 13 13 12 12 11 11 11 11 11 12 12 13 12 11 9 8 9 9 10 10 11 10 10 10 11 12 14 15 16 16 15 14 13 13 12 13 12 11 11 11 11 13 14 16 17 18 19 20 20 21 22 23 25 25 25 26 27 28 28 28 28 28 28 28 26 25 27 29 29 27 27 28 29 29 28 26 26 29 34 36
15 15 14 14 13 13 13 12 12 12 13 13 14 14 13 12 13 14 14 13 11 10 9 9 9 11 11 11 10 9 11 12 13 15 16 16 16 15 15 14 13 12 13 13 12 11 13 15 16 17 18 19 19 20 20 21 21 23 24 24 24 25 26 27 28 27 27 28 28 28 27 27 30 30 29 29 29 29 30 32 31 30 33 37 37
15 14 14 13 13 12 12 12 12 13 14 15 16 17 16 15 15 15 15 15 14 13 13 11 9 9 10 11 11 10 10 10 12 13 13 14 15 15 15 15 14 13 13 13 12 12 14 15 16 17 18 18 19 19 19 20 20 21 22 23 23 24 24 25 25 25 25 26 27 28 28 28 29 30 30 30 30 29 29 31 33 34 35 36 33
14 13 13 12 12 11 11 12 12 13 14 15 15 16 17 17 17 16 16 16 15 14 14 13 10 9 9 9 10 10 10 9 10 10 10 11 13 13 13 14 15 14 14 13 12 13 14 14 15 16 17 17 18 18 19 19 19 20 20 20 22 23 23 23 23 23 23 24 24 26 27 27 28 29 28 28 29 29 28 29 30 32 33 32 31
13 13 13 12 12 11 12 12 12 13 14 14 14 14 15 15 15 15 15 15 14 14 13 13 12 11 10 9 9 8 8 8 8 8 8 9 10 11 12 14 14 15 15 14 13 14 14 14 14 15 16 16 17 17 18 19 19 19 19 19 20 21 22 22 22 22 22 22 22 23 24 25 26 27 27 27 27 27 28 29 29 28 28 28 30
12 13 13 12 12 12 12 13 13 13 12 11 11 11 12 13 13 13 14 14 14 14 14 13 13 13 12 11 10 9 8 7 7 7 7 6 7 9 11 14 15 15 14 14 13 14 14 14 14 15 15 15 16 16 17 18 18 18 18 19 19 19 20 20 21 21 21 21 22 22 22 23 23 24 25 26 26 25 26 28 28 27 26 24 24
12 12 13 13 13 13 13 12 12 11 10 10 10 9 9 10 10 11 11 12 12 13 13 13 13 13 13 12 11 10 9 9 9 8 7 6 6 8 9 10 13 14 13 13 13 13 13 14 14 14 14 14 15 15 15 16 16 17 17 18 18 18 18 19 20 20 20 21 21 22 22 21 22 22 23 24 25 25 25 26 26 26 26 25 24
12 13 14 13 12 12 12 12 11 11 10 10 10 9 9 8 8 8 8 8 9 10 11 11 12 12 12 12 12 12 12 11 11 10 9 8 9 9 9 8 10 11 12 12 12 13 13 13 13 13 14 14 14 14 14 15 15 16 16 16 17 17 18 18 18 18 19 20 21 21 21 21 21 21 21 21 22 23 24 24 24 24 24 24 24
13 14 14 13 12 12 12 12 11 10 10 10 9 9 8 8 8 8 8 7 7 7 8 8 8 9 10 11 11 12 12 12 12 12 11 12 11 11 9 9 10 10 11 11 11 11 12 12 12 12 12 13 13 13 13 14 14 14 15 15 15 16 17 17 17 17 17 18 19 19 20 20 20 20 20 20 20 20 20 21 22 22 22 22 21
14 14 14 12 13 13 11 10 10 10 10 9 9 9 8 8 7 7 7 6 5 5 5 5 5 6 6 7 7 7 8 10 11 12 12 12 12 10 9 9 9 9 10 10 10 10 11 11 11 11 11 12 12 12 12 12 13 13 13 14 14 14 15 15 16 16 15 16 17 17 18 18 18 19 19 19 19 19 18 18 19 19 20 20 19
13 14 14 13 13 12 11 11 12 11 10 8 8 8 7 7 6 6 7 5 4 3 4 3 3 3 3 3 3 3 3 4 7 8 9 10 9 8 8 8 9 9 9 9 9 9 10 10 10 11 11 11 11 11 11 11 12 12 12 12 12 13 13 13 14 16 15 15 16 16 16 16 16 17 17 18 18 18 18 17 17 17 17 17 17
13 15 15 14 12 12 12 12 12 10 8 7 8 7 7 6 6 5 5 4 3 2 2 2 2 3 3 3 3 4 4 3 4 6 7 7 7 7 7 7 8 8 8 8 8 8 9 9 9 10 10 10 10 10 10 10 11 11 11 10 11 12 12 13 13 14 15 15 15 15 15 15 15 15 15 15 16 16 16 16 16 16 15 15 14
14 16 16 14 11 12 12 12 11 9 8 7 8 7 6 5 4 3 3 2 2 1 1 1 1 2 3 3 5 6 5 4 4 4 5 5 6 6 6 6 6 7 7 7 7 8 7 8 8 9 9 9 10 10 10 10 10 10 11 10 10 10 11 11 12 12 13 13 13 14 14 13 13 13 13 13 13 13 13 14 14 14 13 13 12
15 16 15 12 10 11 12 11 9 9 8 7 7 6 5 4 3 3 2 1 1 1 1 2 1 1 1 4 5 6 6 6 4 3 4 4 4 5 5 5 5 5 5 6 6 7 7 7 7 8 8 9 9 9 9 9 9 9 10 10 10 9 9 9 10 10 11 11 12 12 12 12 12 12 12 12 12 11 12 12 11 11 11 11 11
15 16 15 12 11 11 11 9 8 8 7 6 6 5 4 4 3 3 2 2 3 3 3 4 3 1 1 4 6 7 7 6 5 4 4 4 3 3 3 3 3 4 4 4 5 5 6 6 6 6 7 7 8 8 8 8 8 9 9 9 10 9 9 8 8 8 9 9 10 10 10 10 10 11 10 10 10 10 11 11 10 10 10 9 9
15 15 14 13 11 10 9 9 8 8 7 7 6 4 4 4 4 4 4 4 4 4 4 5 5 3 3 4 6 7 6 6 5 5 4 4 4 3 3 2 2 2 2 3 3 4 4 5 5 5 5 5 6 6 7 7 8 8 8 8 8 9 9 8 8 8 7 7 8 8 9 9 9 9 9 9 9 9 9 9 9 8 8 8 7
14 13 13 12 11 9 8 8 8 8 7 6 5 5 6 6 6 5 5 5 5 5 5 6 6 5 5 5 5 5 5 5 4 4 5 5 5 5 4 3 3 3 3 3 2 3 3 4 4 4 4 5 5 5 5 6 6 6 6 6 7 7 8 8 8 7 7 7 6 6 7 7 7 7 7 8 8 7 8 8 8 8 7 7 7
12 12 11 10 10 9 9 8 8 7 7 7 7 7 8 8 7 6 6 6 5 6 6 6 6 6 6 6 6 5 4 4 4 4 4 5 5 5 5 5 4 4 4 4 4 4 4 4 4 4 5 4 5 4 4 4 4 5 5 5 5 5 6 6 6 6 6 6 6 6 6 6 6 6 6 6 6 6 6 6 6 6 6 6 5
11 10 10 10 9 9 9 8 8 8 8 8 8 8 8 8 7 7 6 6 6 6 7 7 6 6 7 7 6 6 5 5 4 4 4 5 5 5 6 6 6 6 6 6 6 6 6 6 6 6 6 5 6 6 5 5 4 4 3 3 4 4 4 4 5 5 5 6 6 5 5 5 5 5 5 5 5 4 5 5 5 4 4 4 4
10 10 10 9 9 9 9 8 8 8 8 8 8 8 8 8 7 7 7 7 7 7 8 8 7 7 6 7 7 7 6 6 5 4 4 5 5 5 6 6 7 7 8 8 8 8 8 8 8 8 8 8 8 8 7 7 6 5 5 4 3 2 3 3 3 4 4 4 4 4 5 5 4 4 5 5 4 4 3 3 3 3 3 4 3
10 10 10 9 9 9 9 8 8 8 9 9 8 8 8 8 8 8 8 8 8 8 8 8 8 7 7 7 7 7 7 7 7 6 6 6 5 5 6 6 8 9 9 9 9 10 10 10 10 10 10 11 10 10 10 9 8 8 7 6 5 5 5 4 3 3 3 3 2 3 3 4 3 3 4 4 4 4 4 4 3 3 3 4 4
10 10 9 9 9 9 9 9 9 9 9 9 9 9 9 9 9 9 9 9 9 9 9 9 9 8 8 8 8 8 8 8 8 8 8 7 7 6 6 7 8 8 9 10 10 11 11 12 12 12 12 12 12 12 11 11 11 11 10 9 10 10 9 7 5 5 4 3 3 3 3 3 3 3 3 3 3 4 3 3 4 4 4 4 4
11 11 10 10 10 9 9 10 10 10 10 10 10 10 10 10 10 10 10 10 10 10 10 10 10 10 10 10 10 10 10 10 10 10 9 9 9 8 8 8 8 9 9 10 10 11 11 12 12 13 14 14 13 13 13 13 13 13 12 12 14 15 14 11 10 9 7 5 5 6 6 5 5 5 4 4 4 4 4 4 4 5 5 5 4
11 10 10 10 10 10 10 10 10 10 11 11 11 11 11 11 11 11 11 11 11 11 11 11 12 11 11 11 11 11 11 11 11 11 11 11 11 11 10 10 10 10 11 11 11 11 11 12 12 12 13 14 14 14 14 13 13 14 14 15 17 18 17 16 15 13 11 10 9 8 8 8 8 7 7 6 6 6 5 5 5 6 6 6 5
Wind_Direction
112 109 106 101 94 86 78 71 66 66 69 70 70 66 60 57 52 48 47 42 40 38 36 33 28 25 22 19 15 12 8 5 1 357 350 345 341 333 328 324 319 315 312 308 304 300 296 293 293 293 296 295 293 294 294 290 283 275 270 266 264 264 264 263 264 271 274 273 273 276 276 270 262 251 248 251 244 236 230 223 223 224 218 216 218
105 104 102 94 87 81 74 71 66 65 68 67 64 62 58 53 49 47 44 40 40 40 38 36 32 30 27 22 17 13 8 4 360 355 348 343 339 335 330 326 322 320 318 316 313 308 301 297 296 298 300 297 293 294 295 294 289 283 281 278 271 264 261 262 267 274 278 276 275 277 276 267 260 256 249 245 239 232 227 224 221 221 218 215 215
98 96 93 87 83 80 76 73 69 66 65 62 60 59 57 54 50 47 45 41 39 39 39 38 35 32 29 23 17 12 8 4 358 353 349 344 341 338 335 331 326 324 323 323 321 317 311 306 303 305 308 305 302 299 295 292 289 286 285 283 278 273 267 266 271 274 276 277 278 279 278 267 258 257 249 242 239 232 226 225 222 221 221 218 216
93 88 84 82 81 81 79 74 69 65 61 60 60 60 58 56 52 50 48 44 43 42 41 41 37 33 29 24 19 14 11 6 0 355 352 348 344 342 340 337 332 329 326 326 325 323 319 314 312 313 313 312 309 305 302 303 302 297 289 284 281 279 277 274 269 269 274 279 281 279 278 275 267 260 251 244 241 233 227 227 225 223 223 221 218
92 88 83 83 82 80 78 73 68 63 60 60 61 61 60 58 56 53 51 49 48 46 44 43 39 35 31 27 23 19 14 8 3 358 354 352 349 346 344 341 338 335 333 330 328 326 321 317 316 317 317 315 314 313 313 316 316 310 303 297 291 290 291 285 274 270 275 279 281 279 275 276 274 267 257 250 242 233 229 228 227 226 223 221 221
97 94 91 88 83 78 74 71 68 63 60 62 62 62 62 60 58 56 53 52 51 48 47 44 41 38 35 32 28 22 15 10 5 360 356 354 353 350 348 347 345 342 341 341 339 335 331 328 325 326 327 325 323 324 323 321 318 313 308 305 302 300 298 293 285 281 282 278 276 277 274 273 274 270 264 254 243 235 229 225 226 228 224 219 220
104 101 97 91 83 77 73 69 68 64 62 64 64 64 64 62 61 59 56 55 53 49 48 45 43 42 38 35 30 22 15 10 7 5 1 355 353 353 354 355 355 354 353 353 354 352 349 347 347 345 344 341 337 334 330 327 323 316 312 313 313 310 304 300 296 289 285 280 276 277 276 273 272 270 265 256 247 239 231 225 226 226 222 218 218
108 104 100 92 82 77 73 70 69 69 68 69 68 67 67 65 64 62 60 58 54 51 49 47 46 44 40 36 30 22 17 12 10 10 8 1 355 356 1 3 4 4 3 2 3 2 358 357 359 357 352 350 348 344 339 338 336 327 322 320 317 312 306 303 302 297 291 286 283 280 277 274 272 268 263 255 246 237 230 226 226 224 221 220 219
108 105 101 92 83 78 76 74 73 72 72 72 71 70 70 69 69 66 63 60 56 52 50 49 47 44 40 36 30 24 18 14 13 12 11 7 360 358 3 7 6 6 6 6 7 5 3 360 359 358 354 352 355 352 349 354 351 340 334 331 323 315 309 304 302 300 296 291 288 284 280 279 277 270 262 251 243 239 232 226 228 228 225 223 221
104 102 100 94 87 83 80 79 77 76 76 75 74 75 75 74 72 68 63 60 56 53 50 49 47 43 40 35 31 26 18 13 16 19 20 21 14 6 8 10 10 10 8 7 6 5 5 2 358 358 356 355 359 359 360 11 1 346 342 342 340 337 328 316 311 307 303 298 295 293 288 284 281 272 264 258 252 247 238 228 229 230 225 223 224
99 97 98 96 94 89 85 83 81 79 79 78 79 80 78 76 72 67 63 60 56 53 50 49 47 45 43 37 32 26 17 12 16 26 32 38 35 22 16 16 16 16 13 12 8 5 5 5 3 3 359 356 358 357 1 13 3 346 345 344 341 348 350 339 329 323 317 311 304 303 299 293 289 283 271 264 257 250 244 236 229 224 220 219 221
97 97 97 97 97 92 89 88 85 84 84 82 83 82 78 75 70 66 64 60 56 54 51 49 48 45 44 40 34 26 18 15 21 32 38 42 44 37 27 25 25 24 22 20 16 12 11 11 10 8 1 358 359 357 358 3 357 346 347 345 340 348 356 355 348 336 325 319 311 308 308 306 304 300 292 281 266 254 247 240 230 222 218 218 217
99 98 98 97 95 92 92 93 90 89 87 84 84 81 77 74 70 67 65 61 57 55 52 49 48 46 44 41 35 26 21 21 29 41 43 43 45 43 35 33 34 31 29 27 23 20 19 16 14 9 3 1 4 5 3 359 352 347 349 349 347 352 356 357 358 349 333 325 319 314 317 317 312 306 304 302 292 272 252 239 230 225 223 223 222
101 100 100 99 96 94 95 96 94 92 88 86 85 81 77 75 71 68 66 62 58 56 53 49 47 46 45 43 36 27 24 24 32 44 48 45 44 42 38 37 37 34 32 30 27 23 21 18 14 8 5 3 6 9 10 2 353 350 352 351 351 354 355 356 358 355 346 337 329 323 323 322 315 309 307 305 301 290 270 250 236 230 230 232 230
103 102 101 99 98 98 98 99 97 94 91 89 86 82 79 76 73 70 68 64 62 60 55 51 49 47 45 44 39 30 26 27 34 45 49 47 43 41 39 38 38 35 32 30 27 23 20 18 13 8 5 5 6 10 12 6 357 356 357 355 355 357 355 353 353 353 351 346 339 332 330 330 325 322 319 311 299 289 278 268 256 245 240 236 231
103 102 100 98 97 99 101 101 99 97 95 91 87 83 80 78 75 74 73 70 68 66 60 55 52 50 46 46 42 33 29 30 36 45 51 49 43 40 40 40 39 36 32 29 27 25 21 18 15 11 7 6 7 9 15 13 3 359 1 360 360 1 360 357 354 352 349 346 343 341 340 339 337 334 332 324 310 295 281 271 266 261 253 239 225
102 101 99 99 99 102 105 103 101 99 95 91 86 83 81 80 79 78 78 75 71 69 66 61 57 53 50 47 44 36 29 29 33 41 48 50 44 37 37 37 35 33 31 27 24 23 20 19 21 20 14 10 8 6 14 18 7 359 1 1 360 1 2 0 358 355 353 350 347 347 347 345 345 343 341 339 332 316 297 275 262 259 253 243 224
100 100 101 103 105 105 105 103 101 98 95 91 87 84 83 83 82 80 79 77 73 70 69 67 62 58 54 51 48 42 33 28 29 34 38 44 43 35 32 33 30 27 25 23 20 19 17 20 27 28 21 18 16 11 14 19 10 1 359 356 359 1 358 359 0 358 358 357 354 353 354 353 352 350 347 348 353 353 338 307 283 266 247 236 230
97 101 106 109 108 107 105 102 100 97 95 92 88 87 86 84 83 82 80 78 76 72 71 69 66 62 58 53 49 45 37 31 31 32 33 39 44 38 30 31 30 25 23 22 21 22 21 21 28 32 28 25 25 23 24 26 18 7 1 357 358 357 351 354 1 1 360 1 1 359 359 358 358 357 354 354 359 5 2 345 324 301 263 244 229
101 102 106 107 106 106 104 101 99 98 96 95 92 90 87 84 81 81 79 79 78 75 72 71 68 65 62 56 50 47 42 35 33 36 37 41 47 45 37 36 36 31 30 30 27 28 28 24 26 31 33 31 30 31 33 34 28 18 12 7 1 355 351 356 4 4 3 4 4 3 3 1 2 3 360 359 1 2 2 358 346 327 296 271 234
105 106 108 107 106 105 104 101 100 98 97 97 94 90 86 83 82 82 81 80 79 77 75 72 69 66 62 59 54 50 48 43 38 40 43 45 52 55 48 43 43 40 38 37 34 33 32 27 26 32 36 35 34 33 33 34 32 26 21 18 12 7 5 7 9 8 8 8 8 8 7 5 5 6 4 3 2 360 1 1 358 347 321 297 247
114 115 112 108 106 106 105 103 102 100 97 96 93 89 87 85 83 83 83 81 79 77 74 71 70 67 62 59 57 52 50 49 45 46 49 50 55 61 60 54 49 45 42 40 37 36 34 29 30 37 40 39 36 35 33 33 32 28 26 25 24 23 21 17 15 14 12 11 9 9 9 8 6 6 4 4 4 3 4 7 10 14 4 306 242
119 116 111 107 105 107 107 105 104 102 98 95 92 89 88 86 84 83 83 82 79 77 74 70 68 66 61 57 55 52 49 49 47 48 52 55 58 62 65 62 55 47 44 42 40 37 34 32 35 39 39 36 34 33 33 33 32 31 30 30 29 29 29 26 22 19 16 13 10 10 10 9 8 7 6 4 5 7 9 13 21 35 45 63 122
118 113 111 109 108 109 109 107 106 103 98 94 91 88 86 84 82 80 78 78 76 73 71 69 66 64 61 57 52 48 45 45 43 43 48 54 58 60 62 62 58 51 48 46 43 42 39 37 37 35 32 30 28 28 29 31 32 32 31 31 30 29 29 28 27 24 21 18 14 13 12 10 9 10 9 7 9 13 16 22 33 47 59 71 85
118 116 114 113 112 112 110 107 103 100 97 93 89 86 85 83 82 79 74 72 71 70 68 66 63 61 58 55 51 45 41 38 35 34 37 44 49 51 55 56 54 52 52 48 46 45 43 37 33 28 27 28 28 27 27 28 30 32 32 32 31 30 29 29 29 29 27 24 20 18 16 15 13 13 12 13 16 18 20 28 39 51 63 71 77
120 118 117 117 116 114 111 106 101 98 94 89 85 83 82 80 79 77 74 70 68 66 65 63 62 60 56 54 51 45 40 37 32 29 29 33 35 35 37 40 40 42 46 42 39 38 34 29 26 24 26 29 30 30 29 27 28 32 34 34 33 32 31 30 31 32 32 29 25 24 22 19 17 18 19 21 22 22 24 31 38 47 61 71 72
121 121 121 121 119 115 111 108 105 99 94 89 85 81 77 75 72 69 66 66 67 67 64 59 56 54 52 53 52 49 43 38 33 29 26 27 29 29 28 28 29 33 35 30 26 27 24 23 25 27 27 29 30 31 30 29 29 30 32 34 35 35 35 36 36 36 36 33 30 30 29 26 25 25 27 27 27 26 29 35 40 45 59 70 71
126 126 125 123 120 117 113 111 106 98 91 85 80 76 73 71 68 60 52 51 56 60 61 60 55 49 48 47 49 52 49 42 37 36 35 35 36 34 32 30 30 31 31 23 18 21 24 25 27 28 28 28 29 29 29 30 31 30 30 32 34 34 36 38 38 38 37 36 36 35 33 33 32 31 32 33 32 30 33 39 44 49 59 68 70
128 126 125 124 123 120 117 112 105 100 94 86 79 75 74 75 74 70 64 63 64 60 59 62 57 50 48 46 45 52 54 48 45 47 48 49 49 45 44 42 39 38 38 35 30 28 30 30 29 28 28 27 27 27 27 27 29 30 29 30 31 32 33 36 37 37 36 37 38 38 36 36 35 35 35 37 37 36 38 44 48 53 60 65 67
130 128 127 126 125 124 120 115 110 107 104 99 91 85 83 82 82 80 75 73 73 71 68 69 68 63 62 58 56 61 65 60 55 55 54 54 54 54 54 54 51 48 44 41 38 35 33 32 31 29 29 28 26 26 26 25 26 27 28 29 30 30 30 32 35 36 36 37 38 39 38 39 38 37 38 39 40 40 41 45 49 53 58 62 63
132 131 128 126 126 125 122 119 118 116 113 111 107 99 92 85 81 80 79 77 76 75 73 73 75 81 84 78 68 67 71 67 60 57 56 55 56 56 55 53 52 49 42 38 37 37 35 33 32 30 30 29 27 24 25 26 26 27 27 28 30 31 30 30 30 30 34 38 38 38 39 40 41 41 41 42 43 43 43 45 50 53 56 60 63
134 131 129 128 127 127 124 122 123 123 121 119 116 112 106 97 87 81 79 78 77 77 76 75 76 80 88 91 82 71 67 63 57 53 52 53 58 60 55 48 44 41 40 39 38 36 34 32 32 30 29 28 27 26 25 26 26 27 28 29 29 31 32 31 29 29 32 35 35 35 37 40 42 44 45 45 45 46 47 47 50 53 55 59 65
132 132 133 134 131 128 128 127 127 127 127 126 124 120 116 111 105 97 91 85 81 78 77 76 77 77 78 82 82 75 66 57 51 50 53 57 63 61 50 39 34 34 36 38 36 34 33 31 31 30 29 28 27 26 26 27 27 27 28 29 30 31 32 31 31 32 31 31 32 33 34 38 42 44 46 49 49 49 51 51 51 53 56 58 63
130 134 139 139 136 133 133 132 130 128 124 122 122 120 117 118 121 120 115 107 98 89 81 77 77 78 77 74 72 69 65 59 54 54 59 67 63 49 33 26 29 32 34 35 35 32 30 30 29 29 28 28 27 25 26 28 28 28 29 29 29 30 29 30 32 33 33 31 32 33 33 35 39 42 45 49 51 52 53 54 54 56 58 59 64
130 136 142 142 139 136 134 133 132 129 124 120 118 117 117 119 120 120 117 116 112 103 93 85 79 77 76 74 70 65 60 56 54 54 59 63 54 39 28 26 30 31 31 33 34 31 29 28 28 28 27 27 26 26 26 27 27 27 28 28 28 29 28 28 28 30 32 32 31 32 34 34 37 41 45 48 51 54 55 55 57 59 61 63 67
133 139 144 144 140 136 135 136 134 129 126 124 121 118 118 117 116 115 112 111 110 108 107 107 98 86 76 70 67 63 58 53 50 48 49 49 45 35 30 32 33 31 31 31 29 29 29 27 26 27 27 26 26 26 26 26 27 26 26 26 28 28 26 25 24 24 29 32 31 32 35 36 36 40 44 46 49 53 57 59 59 61 65 68 71
138 143 145 142 139 138 137 135 131 128 128 127 125 124 123 120 118 117 112 108 110 107 107 117 125 112 93 73 59 50 43 41 40 35 31 31 33 31 31 32 31 31 32 29 25 27 29 27 26 26 26 24 24 24 24 24 24 24 23 24 25 23 22 23 23 22 25 31 32 32 36 38 39 41 44 47 48 49 52 58 62 64 66 69 72
139 143 144 140 139 140 137 133 134 136 137 136 133 129 126 123 120 115 111 110 114 110 100 98 101 95 82 71 47 5 345 3 22 22 17 17 20 24 28 30 29 29 30 28 24 25 28 27 26 25 23 23 23 22 22 22 21 20 20 22 23 21 19 21 24 24 24 28 31 33 35 38 40 43 46 48 49 49 49 52 58 63 64 64 67
136 139 141 140 140 141 138 140 146 150 149 143 137 131 131 132 130 127 127 126 122 111 97 91 80 58 40 26 358 330 316 331 3 9 9 13 16 18 23 26 26 26 26 25 23 23 26 26 25 23 23 22 22 21 21 21 20 18 16 18 21 22 20 21 23 24 25 27 28 30 33 36 38 42 46 48 49 51 52 52 55 60 63 63 65
140 143 145 144 144 144 145 150 156 158 155 150 145 145 149 149 144 141 141 134 121 103 39 3 35 53 36 5 344 335 332 335 348 355 358 2 7 13 17 20 21 21 20 21 20 19 22 23 24 23 22 20 20 21 20 19 19 19 17 16 19 22 23 23 23 23 25 27 27 28 31 33 34 38 43 45 46 48 51 54 56 59 62 65 67
145 150 154 156 152 150 153 161 164 161 161 162 160 161 162 161 166 176 176 184 234 256 291 300 307 21 360 323 316 316 314 314 321 334 339 341 351 2 7 11 14 14 14 16 18 17 16 19 20 21 21 19 18 18 18 17 18 20 21 19 18 17 20 23 23 22 24 27 28 27 28 30 34 36 38 40 42 44 46 49 53 56 59 62 64
147 152 159 164 163 161 164 170 170 166 170 178 181 182 184 184 197 218 233 255 273 285 293 294 291 284 292 307 313 311 302 297 302 309 309 310 320 332 342 352 360 3 5 9 11 10 10 10 11 13 16 16 14 14 16 17 17 18 21 23 19 15 17 20 18 16 21 28 29 26 25 28 35 37 35 34 38 40 40 41 45 50 54 55 59
152 156 161 166 171 173 174 175 177 179 185 192 196 201 212 221 229 237 241 249 264 275 279 285 291 288 276 297 312 309 291 278 280 287 289 292 295 295 294 303 323 336 338 343 351 357 356 356 360 3 5 5 6 9 11 12 12 13 16 20 21 17 16 17 15 11 13 20 23 24 23 24 30 36 36 34 36 38 37 36 35 40 46 46 46
158 163 167 170 177 185 186 187 192 194 197 209 221 227 234 242 246 247 248 254 263 269 273 280 289 289 278 273 279 282 279 279 285 289 285 281 278 274 271 271 278 284 288 292 305 318 326 332 340 344 345 346 348 353 357 359 4 9 9 13 18 19 17 16 14 10 5 4 9 18 22 19 21 28 34 33 32 34 36 35 30 32 36 38 38
168 170 174 178 186 193 195 198 203 204 205 218 227 229 231 237 242 247 256 263 267 271 276 279 279 278 275 268 261 264 276 288 290 286 282 278 271 263 261 261 259 261 265 268 268 274 284 295 303 309 315 321 323 326 331 335 341 350 357 1 9 15 15 14 13 9 3 359 1 9 18 19 17 18 22 25 25 26 29 29 26 24 26 27 33
179 180 184 189 195 199 200 201 204 206 212 219 224 226 228 232 237 245 255 265 273 280 283 280 276 272 269 263 258 257 262 271 278 279 281 282 277 268 262 258 256 259 263 262 259 260 263 267 273 281 286 291 298 303 303 301 305 313 321 328 343 355 360 3 7 10 10 8 7 7 9 15 21 20 13 12 15 18 18 13 9 8 7 5 10
187 191 195 196 198 202 205 206 208 214 220 225 229 233 237 239 243 249 254 259 267 274 276 274 274 275 269 260 255 252 253 259 267 272 275 278 277 271 265 259 257 259 262 262 260 259 258 259 261 264 267 271 277 282 285 285 282 282 286 289 295 305 317 332 348 354 355 5 18 16 3 358 7 17 11 4 359 359 358 352 343 342 338 329 331
195 198 201 203 203 206 208 208 212 220 227 230 232 235 240 245 249 251 253 256 259 264 267 268 269 270 268 262 256 253 254 258 263 267 271 273 273 270 266 261 258 260 262 263 262 260 258 258 258 257 259 264 267 268 271 273 271 269 270 267 259 263 282 303 314 306 304 323 354 1 350 348 356 3 5 360 352 344 341 335 327 323 318 312 313
204 206 209 211 214 217 219 219 221 224 228 231 232 233 236 242 247 251 256 260 263 265 268 269 269 268 267 263 258 257 258 260 261 264 267 269 271 272 269 260 255 257 261 263 263 262 260 258 257 256 256 258 261 261 263 264 263 262 263 259 256 261 272 281 281 276 279 288 294 293 296 302 310 314 317 325 328 327 325 322 316 310 300 294 295
211 215 218 219 221 226 229 231 234 235 235 237 239 239 240 244 248 252 256 260 263 266 268 268 268 268 266 263 262 261 261 261 262 263 266 267 268 270 269 263 256 255 258 260 262 263 261 259 257 256 255 255 256 256 257 258 258 256 254 253 254 259 264 266 265 267 270 268 265 268 270 270 271 276 279 280 285 289 292 296 301 296 286 276 271
212 218 224 226 230 235 235 235 238 240 241 243 245 246 248 250 252 255 258 260 263 267 269 269 268 266 264 262 262 262 262 264 266 267 268 269 269 268 267 263 259 257 258 259 259 259 260 261 259 256 255 255 253 252 253 255 254 251 250 251 254 258 261 260 258 259 259 257 254 256 258 257 256 259 264 266 266 266 270 276 282 282 277 271 264